This demonstration page uses our WeatherBlox Daily Observations layout. Learn more.

Left ArrowRight Arrow

53.62937, 11.41316

Hourly Observations for November 26, 2020

Temp ( °F °C ) Dew Point ( °F °C ) Humidity (%) Winds ( mph kmh ) Pressure ( in mb ) Visibility ( mi km ) Precip ( " mm )
6:50 am 06:50 Mostly Cloudy with Mist and Fog 41 5 41 5 100 100 S 6 9 30.03 1017 1 2 N/A
7:20 am 07:20 Mostly Cloudy with Drizzle 41 5 37 3 87 87 S 5 7 30.03 1017 1 2 N/A
7:50 am 07:50 Mostly Cloudy with Mist and Fog 43 6 43 6 100 100 S 6 9 30.03 1017 1 2 N/A
8:20 am 08:20 Mostly Cloudy with Mist and Fog 43 6 43 6 100 100 S 7 11 30.03 1017 2 3 N/A
8:50 am 08:50 Mostly Cloudy with Mist and Fog 45 7 45 7 100 100 S 6 9 30.03 1017 1 2 N/A
9:20 am 09:20 Mostly Cloudy with Mist and Fog 45 7 45 7 100 100 S 7 11 30.03 1017 1 2 N/A
9:50 am 09:50 Mostly Cloudy with Mist and Fog 45 7 45 7 100 100 S 8 13 30.03 1017 1 2 N/A
10:20 am 10:20 Mostly Cloudy with Mist and Fog 46 8 46 8 100 100 SSW 8 13 30.06 1018 1 2 N/A
10:50 am 10:50 Mostly Cloudy with Mist and Fog 46 8 46 8 100 100 SW 10 17 30.06 1018 1 2 N/A
11:20 am 11:20 Mostly Cloudy with Mist and Fog 46 8 46 8 100 100 SW 8 13 30.06 1018 2 3 N/A
11:50 am 11:50 Cloudy with Mist and Fog 48 9 48 9 100 100 SW 9 15 30.06 1018 2 3 N/A
12:20 pm 12:20 Mostly Cloudy with Mist and Fog 48 9 48 9 100 100 SW 7 11 30.06 1018 3 5 N/A
12:50 pm 12:50 Mostly Cloudy 48 9 48 9 100 100 SW 8 13 30.06 1018 6 9 N/A
1:20 pm 13:20 Mostly Cloudy 48 9 48 9 100 100 SW 6 9 30.06 1018 30 48 N/A
1:50 pm 13:50 Mostly Cloudy 50 10 46 8 88 88 SW 6 9 30.06 1018 30 48 N/A
2:20 pm 14:20 Partly Cloudy 50 10 45 7 82 82 WSW 5 7 30.06 1018 30 48 N/A
2:50 pm 14:50 Mostly Sunny 48 9 43 6 82 82 WSW 5 7 30.09 1019 30 48 N/A
3:20 pm 15:20 Mostly Sunny 46 8 43 6 87 87 WSW 3 6 30.09 1019 30 48 N/A
3:50 pm 15:50 Mostly Sunny 46 8 43 6 87 87 SW 5 7 30.09 1019 30 48 N/A
4:20 pm 16:20 Mostly Clear 43 6 43 6 100 100 VRB 2 4 30.09 1019 7 11 N/A
4:50 pm 16:50 Mostly Clear 45 7 43 6 93 93 SW 3 6 30.09 1019 7 11 N/A
5:20 pm 17:20 Mostly Clear 43 6 43 6 100 100 SW 5 7 30.09 1019 7 11 N/A
5:50 pm 17:50 Mostly Clear 43 6 43 6 100 100 SW 3 6 30.09 1019 7 11 N/A
6:20 pm 18:20 Mostly Clear 43 6 43 6 100 100 SW 5 7 30.12 1020 7 11 N/A
6:50 pm 18:50 Mostly Clear 43 6 43 6 100 100 SW 5 7 30.12 1020 7 11 N/A
7:20 pm 19:20 Mostly Clear 41 5 41 5 100 100 SW 3 6 30.12 1020 7 11 N/A
7:50 pm 19:50 Mostly Clear with Patchy Fog 41 5 41 5 100 100 SW 2 4 30.12 1020 30 48 N/A
8:20 pm 20:20 Mostly Clear with Patchy Fog 41 5 41 5 100 100 SW 5 7 30.12 1020 30 48 N/A
8:50 pm 20:50 Mostly Clear 41 5 41 5 100 100 SSW 3 6 30.12 1020 7 11 N/A
9:20 pm 21:20 Mostly Clear 41 5 41 5 100 100 SW 3 6 30.12 1020 7 11 N/A
9:50 pm 21:50 Mostly Clear with Patchy Fog 39 4 39 4 100 100 VRB 1 2 30.12 1020 30 48 N/A

Powered by AerisWeather